Regional Weather Roundup
Issued by NWS

Home | Current Version | Previous Version | Text Only | Print | Product List | Glossary On
Versions: 1 2 3 4 5 6 7 8 9 10 11 12 13 14 15 16 17 18 19 20 21 22 23 24 25 26 27 28 29 30 31 32 33 34 35 36 37 38 39 40 41 42 43 44 45 46 47 48 49 50
805
ASUS43 KMKX 262210
RWRWI

WISCONSIN REGIONAL WEATHER ROUNDUP
NATIONAL WEATHER SERVICE MILWAUKEE/SULLIVAN WI
500 PM CDT THU APR 26 2018

NOTE: "FAIR" INDICATES FEW OR NO CLOUDS BELOW 12,000 FEET WITH NO
SIGNIFICANT WEATHER AND/OR OBSTRUCTIONS TO VISIBILITY.

WIZ001-002-006>008-014>016-023>028-262300-
NORTHWEST WISCONSIN

CITY           SKY/WX    TMP DP  RH WIND       PRES   REMARKS
SUPERIOR ARPT  FAIR      56  32  39 NE6       29.89R
ASHLAND        FAIR      53  35  50 NE10      29.89S
HAYWARD        FAIR      56  36  47 N10G20    29.85S
SIREN          FAIR      62  28  26 NW16      29.85S
CUMBERLAND     FAIR      59  30  33 N15G22    29.83S
RICE LAKE      PTSUNNY   61  32  33 N14       29.84S
CHETEK         PTSUNNY   60  35  39 N10G17    29.82S
LADYSMITH      PTSUNNY   60  37  42 N17       29.83R
EAU CLAIRE     FAIR      63  36  36 N15G23    29.79S
MENOMONIE      FAIR      66  34  30 NW15G22   29.81S
NEW RICHMOND   FAIR      64  30  28 NW13G24   29.85R
OSCEOLA        FAIR      64  29  27 NW13G20   29.88R
$$

WIZ003>005-009-010-017-018-262300-
NORTH CENTRAL WISCONSIN

CITY           SKY/WX    TMP DP  RH WIND       PRES   REMARKS
MANITOWISH WTR CLOUDY    43  34  70 N14G22    29.84R
ARBOR VITAE    CLOUDY    52  35  53 N15G25    29.82R
WOODRUFF       CLOUDY    52  35  53 N15G25    29.82R
RHINELANDER    CLOUDY    61  32  33 W20       29.77F
EAGLE RIVER    CLOUDY    55  29  36 N14       29.78R
LAND O LAKES   CLOUDY    47  32  55 N18G25    29.84R
PHILLIPS       CLOUDY    54  35  48 N15G23    29.81R
TOMAHAWK       CLOUDY    59  30  33 NW7       29.77F
MEDFORD        CLOUDY    62  35  36 W12       29.76F
MERRILL        CLOUDY    63  32  30 W9        29.76F
$$

WIZ029-030-035-036-043>047-262300-
CENTRAL WISCONSIN

CITY           SKY/WX    TMP DP  RH WIND       PRES   REMARKS
WAUSAU         PTSUNNY   65  29  25 W12       29.75F
MOSINEE        PTSUNNY   64  28  25 SW13      29.78F
MARSHFIELD     FAIR      66  31  27 SW13G23   29.76F
STEVENS POINT  PTSUNNY   64  26  24 W9        29.78F
WAUPACA        FAIR      69  22  16 W15       29.78S
WAUTOMA        FAIR      67  24  19 SW15      29.78F
WISC RAPIDS    CLOUDY    67  27  22 W9        29.79S
CAMP DOUGLAS   FAIR      67  29  24 SW15G22   29.79S
$$

WIZ011>013-019>022-031-037>040-048>050-262300-
NORTHEAST WISCONSIN

CITY           SKY/WX    TMP DP  RH WIND       PRES   REMARKS
ANTIGO         FAIR      60  34  38 W7        29.78F
SHAWANO        FAIR      67  29  24 W10G17    29.77S
OCONTO         FAIR      65  32  29 W9G20     29.76F
STURGEON BAY   FAIR      62  33  33 SW14      29.79F
GREEN BAY      FAIR      66  34  30 W10G18    29.78F
MANITOWOC      FAIR      55  36  48 S13       29.81S
APPLETON       PTSUNNY   64  21  19 SW9G16    29.77F
CLINTONVILLE   FAIR      67  24  19 W9        29.77F
OSHKOSH        FAIR      66  29  24 W10       29.78F
$$

WIZ032>034-041-042-053>061-262300-
SOUTHWEST WISCONSIN

CITY           SKY/WX    TMP DP  RH WIND       PRES   REMARKS
LA CROSSE      FAIR      70  38  31 W15       29.79F
SPARTA         FAIR      69  31  24 W10G16    29.80F
VIROQUA        FAIR      67  34  29 W15G28    29.81F
BOSCOBEL       FAIR      72  30  21 W10G23    29.80F
PRAIRIE DU CHI FAIR      70  26  19 W14G24    29.80F
PLATTEVILLE    FAIR      71  30  22 W17       29.82F
$$

WIZ056-057-062-063-064-067-068-262300-
SOUTH CENTRAL WISCONSIN

CITY           SKY/WX    TMP DP  RH WIND       PRES   REMARKS
REEDSBURG      FAIR      67  29  23 W12G20    29.79F
BARABOO/DELLS  FAIR      69  22  17 W16G22    29.79F
LONE ROCK      FAIR      70  29  21 W9G23     29.79F
MINERAL POINT  FAIR      70  27  19 W14G22    29.82F
MADISON        PTSUNNY   66  27  23 VRB7      29.81F
MIDDLETON      FAIR      69  24  18 SW6       29.81F
WATERTOWN      FAIR      66  30  26 W6        29.81F
MONROE         FAIR      64  27  24 W15G22    29.83S
JANESVILLE     PTSUNNY   70  23  17 SW8       29.83F
$$

WIZ051-052-058>065-066-070>072-262300-
SOUTHEAST WISCONSIN

CITY           SKY/WX    TMP DP  RH WIND       PRES   REMARKS
MILWAUKEE      PTSUNNY   61  34  36 SE10      29.84S
WAUKESHA       SUNNY     63  28  27 SW9       29.84F
MILWAUKEE/TIMM SUNNY     64  23  20 W8        29.83F
RACINE         FAIR      54  27  35 S13       29.86F
BURLINGTON     FAIR      65  29  25 SW10      29.83F
KENOSHA        FAIR      60  29  30 S10       29.84F
FOND DU LAC    FAIR      66  26  22 W10G16    29.79F
SHEBOYGAN      FAIR      61  37  41 S14       29.80F
WEST BEND      FAIR      64  27  24 W13G21    29.81F
JUNEAU         FAIR      65  27  24 SW14      29.82F
$$

LSZ147-162-262300-
LAKE SUPERIOR

STATION/POSITION TIME  TEMP    WIND        PRES    WAVE
                       AIR SEA DIR/SP/G            HT/PER
                 (UTC) (F)     (DEG/KT/KT) (MB)    (FT/S)
DEVILS ISLAND    2200   46     110/  6/  7 1012.5S
SAXON HARBOR     2130   42      10/  2/  3 1011.9F
$$

LMZ867-665-643>646-262300-
LAKE MICHIGAN

STATION/POSITION TIME  TEMP    WIND        PRES    WAVE
                       AIR SEA DIR/SP/G            HT/PER
                 (UTC) (F)     (DEG/KT/KT) (MB)    (FT/S)
NORTHPORT PIER   2140   48                 1008.5F
KEWAUNEE LAKESHO 2148   43     170/ 14/ 17 1008.6F
SHEBOYGAN LAKESH 2200   43     170/ 23/ 24 1009.7F
PORT WASHINGTON  2140   46     190/  8/ 11 1011.2F
MILWAUKEE LAKESH 2150   45     140/ 18/ 20   N/A
KENOSHA   LAKESH 2200   48                 1010.8
$$

TC  - TEMPERATURE IN CELSIUS
VSB - VISIBILITY IN STATUTE MILES
WCI - WIND CHILL INDEX
HX  - HEAT INDEX





USA.gov is the U.S. government's official web portal to all federal, state and local government web resources and services.